User: anonymous   Login
Location: Unspecified
(0.0000°N, 0.0000°E)
Time: 05:06:04
(UTC+00:00)
Language:

LAPAN A3 - Orbit

View from above orbital plane
View from above orbital plane
View from above satellite
View from above satellite

Ground track
Ground track

The orbit is defined by the following mean orbital elements,

1 41603U          26150.89410498 +.00000000 +00000-0 +13820-3 0 00001
2 41603  97.1480 147.6101 0012199  80.0279 280.2340 15.32984793    03
Epoch (UTC): 30 May 2026 21:27:30
Eccentricity: 0.0012199
inclination: 97.1480°
perigee height: 459 km
apogee height: 475 km
right ascension of ascending node: 147.6101°
argument of perigee: 80.0279°
revolutions per day: 15.32984793
mean anomaly at epoch: 280.2340°

The dashed part of the orbit path shows where the satellite is in the earth's shadow,  

DLR